SCP
0 0 0 0 0 0 0 0 0 1 2 3 5 6 7 8 8 6 5 5 5 5 6 6 5 5 5 6 7 9 11 10 8 6 5 5 4 4 4 3 3 3 2 2
0 0 1 1 1 0 0 1 1 2 3 4 5 6 7 8 7 6 5 5 6 6 6 6 6 6 6 6 7 8 9 8 7 6 5 5 5 4 4 3 3 2 2 2
0 0 1 1 1 1 1 2 2 3 4 5 7 7 7 8 8 7 6 6 6 6 6 6 6 7 7 7 7 7 6 6 5 6 6 6 6 6 5 4 3 3 2 2
0 0 1 1 1 2 2 3 4 5 7 9 9 9 8 9 9 8 6 6 6 6 6 5 6 7 8 7 7 6 5 5 5 6 7 8 8 8 7 5 4 3 3 3
0 0 1 1 2 3 3 4 6 7 8 10 11 10 9 8 8 8 6 6 6 6 5 5 5 6 7 7 7 6 6 5 4 5 7 9 10 9 8 7 6 4 3 3
0 1 1 2 3 3 4 5 6 7 8 9 10 10 8 7 8 8 7 6 6 6 5 4 4 5 6 7 6 6 5 4 4 4 6 9 10 10 9 8 7 5 3 3
0 1 2 3 4 3 4 5 5 6 7 8 9 9 9 9 9 9 8 7 6 6 5 4 4 5 5 6 5 5 4 4 4 5 6 9 10 10 9 8 7 6 4 3
1 1 2 3 4 4 4 5 5 5 6 8 9 9 9 10 10 10 9 8 7 5 4 4 4 5 5 4 4 4 3 3 4 5 7 9 10 9 9 8 8 7 5 4
2 2 3 3 4 4 5 5 5 5 7 9 10 10 10 10 10 10 10 9 7 5 3 3 3 4 4 3 3 3 2 2 3 4 6 8 8 8 8 8 7 7 6 5
2 3 3 4 5 6 6 5 5 5 7 9 11 11 11 11 11 10 9 8 6 4 3 3 3 2 2 2 2 2 1 1 2 3 4 5 5 5 6 6 7 6 6 5
2 2 3 4 5 7 7 6 6 6 7 9 11 12 13 13 12 11 9 7 5 4 3 3 2 2 1 1 1 1 1 1 1 2 2 2 2 2 3 4 4 5 5 5
2 2 2 3 5 5 5 5 6 7 8 10 12 14 15 14 13 11 9 7 5 4 4 3 2 1 1 1 1 1 1 1 1 1 1 1 0 0 0 1 2 2 3 3
1 2 2 3 3 3 4 4 6 8 10 12 14 15 15 14 12 10 8 6 5 4 3 2 2 1 1 1 1 1 1 1 1 1 0 0 0 0 0 0 0 0 1 1
1 2 2 2 2 3 4 6 8 10 11 12 14 13 12 11 9 7 6 5 4 3 2 2 2 2 1 1 1 1 1 1 1 0 0 0 0 0 0 0 0 0 0 0
2 1 1 1 2 3 5 8 9 10 11 11 12 10 9 7 6 5 4 4 3 2 2 2 2 2 2 1 1 0 1 0 0 0 0 0 0 0 0 0 0 0 0 0
1 1 1 2 3 4 6 8 8 9 10 10 9 8 7 6 5 4 3 3 2 2 1 1 1 2 2 2 1 0 0 0 0 0 0 0 0 0 0 0 0 0 0 0
0 1 1 2 4 6 7 6 7 7 8 8 7 6 5 5 4 3 2 2 1 1 1 1 1 2 3 2 1 0 0 0 0 0 0 0 0 0 0 0 0 0 0 0
0 0 1 2 5 7 7 6 6 6 6 6 5 5 4 4 3 2 1 1 1 1 0 0 1 1 2 1 0 0 0 0 0 0 0 0 0 0 0 0 0 0 0 0
0 0 1 1 4 6 7 6 6 6 5 5 4 4 3 3 2 1 1 0 0 0 0 0 0 1 1 0 0 0 0 0 0 0 0 0 0 0 0 0 0 0 0 0
1 1 1 1 3 6 7 6 6 5 5 4 3 3 2 1 1 1 0 0 0 0 0 0 0 0 0 0 0 0 0 0 0 0 0 0 0 0 0 0 0 0 0 0
1 1 1 2 3 5 5 4 4 4 3 3 2 1 1 0 0 0 0 0 0 0 0 0 0 0 0 0 0 0 0 0 0 0 0 0 0 0 0 0 0 0 0 0
1 1 1 1 2 2 2 2 2 2 2 1 1 0 0 0 0 0 0 0 0 0 0 0 0 0 0 0 0 0 0 0 0 0 0 0 0 0 0 0 0 0 0 0
1 0 0 1 1 1 1 1 1 1 0 0 0 0 0 0 0 0 0 0 0 0 0 0 0 0 0 0 0 0 0 0 0 0 0 0 0 0 0 0 0 0 0 0
0 0 0 0 0 0 0 0 0 0 0 0 0 0 0 0 0 0 0 0 0 0 0 0 0 0 0 0 0 0 0 0 0 0 0 0 0 0 0 0 0 0 0 0
0 0 0 0 0 0 0 0 0 0 0 0 0 0 0 0 0 0 0 0 0 0 0 0 0 0 0 0 0 0 0 0 0 0 0 0 0 0 0 0 0 0 0 0
0 0 0 0 0 0 0 0 0 0 0 0 0 0 0 0 0 0 0 0 0 0 0 0 0 0 0 0 0 0 0 0 0 0 0 0 0 0 0 0 0 0 0 0
0 0 0 0 0 0 0 0 0 0 0 0 0 0 0 0 0 0 0 0 0 0 0 0 0 0 0 0 0 0 0 0 0 0 0 0 0 0 0 0 0 0 0 0
Wind_Speed
4 4 3 4 5 6 6 9 9 8 8 8 8 10 9 9 10 10 9 9 9 7 6 5 6 6 6 6 6 6 6 5 4 3 3 3 3 2 2 3 4 4 4 3
2 2 1 2 4 6 6 6 6 6 4 5 6 8 9 10 11 10 9 9 9 9 7 6 6 6 6 5 5 5 6 5 4 4 4 4 3 3 3 4 5 5 5 4
1 3 4 3 5 6 4 4 8 8 7 8 9 10 11 10 10 10 10 9 8 8 7 6 6 6 7 6 6 6 6 5 4 5 5 4 5 5 5 5 6 6 5 5
3 4 2 8 4 4 5 2 5 7 8 11 11 8 7 8 10 8 8 8 7 6 6 6 6 6 7 7 7 7 6 5 5 5 6 5 5 5 5 5 5 5 5 5
4 2 3 6 4 1 5 0 3 9 10 10 12 12 7 4 8 9 8 8 7 7 7 7 7 7 8 7 7 7 6 5 5 6 6 5 5 5 4 5 5 5 5 6
4 3 3 5 7 4 7 1 1 9 12 12 10 7 4 4 8 9 9 8 7 7 8 7 6 7 9 8 8 7 6 5 5 6 6 6 5 5 5 6 6 6 6 6
4 2 4 5 9 3 6 6 2 5 10 10 6 7 8 9 10 10 9 9 8 8 8 6 6 9 10 8 7 5 6 7 7 6 6 6 6 6 6 7 7 7 7 6
4 3 5 6 4 3 4 3 4 6 8 10 12 12 11 11 10 10 10 9 9 9 8 6 7 9 10 7 5 6 7 8 7 6 6 6 7 6 6 7 7 6 6 6
6 6 5 2 2 2 3 5 4 6 9 13 14 13 11 10 9 9 9 9 8 10 9 7 6 8 9 6 6 8 8 8 7 7 7 6 7 6 6 5 5 5 5 5
4 1 1 3 4 4 5 6 6 9 11 13 13 12 12 10 8 8 8 9 9 10 10 7 6 7 7 6 7 9 9 8 7 8 8 8 6 5 5 5 5 5 4 4
3 1 3 5 4 5 6 8 9 9 9 11 13 12 11 10 9 8 8 7 8 9 9 7 7 7 6 6 8 9 9 8 7 7 7 8 8 6 6 5 4 5 4 4
3 4 4 1 1 4 7 7 7 10 9 9 10 11 10 9 8 8 8 7 8 9 9 8 7 7 6 5 7 9 8 7 5 5 6 6 7 8 12 10 11 10 8 6
3 3 3 2 2 3 6 6 7 9 10 10 8 10 10 9 8 8 8 8 8 8 8 8 7 7 5 5 6 7 7 6 5 5 6 5 5 7 6 7 11 12 10 10
3 5 4 2 3 3 6 8 9 9 9 9 9 9 10 9 9 9 8 8 8 8 8 7 7 6 5 6 7 7 7 7 7 5 5 5 5 4 5 6 5 5 7 10
4 4 4 4 5 5 6 9 10 9 8 8 8 9 10 10 9 8 8 8 8 8 7 7 7 5 5 6 7 7 6 5 5 5 5 5 5 5 5 5 5 4 3 5
4 4 4 6 5 5 6 8 9 8 8 8 8 8 9 9 9 8 8 8 8 7 6 6 6 4 5 6 7 6 5 9 8 6 5 5 5 5 5 4 4 4 3 2
5 4 4 5 5 4 5 6 7 7 7 8 9 9 10 10 9 8 7 6 7 6 5 6 5 4 5 6 7 5 5 7 10 7 5 5 5 5 4 4 4 3 2 2
5 6 6 6 6 6 5 6 7 8 8 9 10 10 9 10 9 8 7 7 7 6 5 4 5 5 5 6 6 5 5 5 5 5 5 5 5 5 5 4 4 4 3 3
4 5 5 5 5 6 7 7 7 7 8 10 10 9 9 9 9 8 8 8 8 6 4 5 8 7 6 6 7 5 6 6 6 5 5 7 6 5 4 4 4 4 3 3
3 4 5 5 5 7 7 7 8 8 7 9 11 11 10 9 9 9 8 6 4 3 5 6 6 6 5 6 7 5 6 7 6 5 5 5 5 4 4 5 4 4 4 3
4 5 6 6 6 7 7 8 8 8 8 9 10 11 10 9 8 8 8 6 4 5 6 7 5 5 5 6 7 6 6 6 6 5 5 5 5 4 4 4 4 4 3 3
5 6 6 7 8 7 6 7 8 9 9 9 10 11 11 10 8 7 6 4 5 7 6 4 4 6 7 7 5 6 6 6 5 5 5 5 5 4 4 4 3 3 3 3
4 6 6 7 7 7 7 7 8 9 9 10 10 10 10 8 6 7 6 3 4 8 6 5 7 9 9 6 5 6 6 5 5 5 4 4 4 4 4 4 3 3 3 3
5 6 6 7 7 8 8 7 7 7 8 8 8 9 9 8 5 4 5 7 8 9 6 6 9 9 8 5 5 5 5 5 4 4 4 4 4 4 3 3 3 3 3 3
6 7 8 8 8 6 7 9 9 9 9 7 8 7 6 5 6 5 5 7 8 8 6 6 8 8 5 4 5 5 4 4 5 5 4 4 3 3 3 3 3 3 3 2
5 6 5 5 6 6 6 7 7 6 7 7 6 6 6 5 7 6 5 6 7 7 5 4 5 5 4 4 5 5 4 4 5 4 4 4 4 4 3 3 4 2 2 2
6 6 5 5 5 5 5 6 7 6 6 7 7 6 6 6 6 6 6 5 5 4 4 3 4 4 4 4 5 4 4 4 4 4 4 4 3 3 3 3 2 2 2 2
Wind_Direction
207 230 201 203 210 194 173 174 175 205 191 205 180 155 142 127 119 117 116 117 118 115 117 121 120 130 135 135 135 133 129 129 134 130 120 109 102 106 107 103 103 100 92 84
356 350 328 274 237 211 193 171 169 159 202 204 150 134 130 132 133 131 131 129 124 121 122 118 119 122 118 118 121 123 125 129 126 117 109 98 87 84 90 91 88 86 87 84
338 342 39 292 240 212 200 181 162 179 196 147 135 146 151 144 135 138 136 129 126 125 121 119 122 120 115 116 112 111 116 118 115 117 110 101 96 84 82 89 89 86 85 84
86 59 200 252 258 163 152 162 152 146 149 147 142 129 116 127 124 123 128 126 121 118 114 108 107 109 106 105 104 104 103 104 109 112 109 103 96 96 94 91 90 87 78 79
106 122 287 309 335 58 132 125 140 133 128 122 113 88 65 88 119 129 131 128 122 119 115 108 105 109 107 102 99 98 96 95 101 109 109 106 103 105 103 97 88 82 76 74
111 131 204 268 301 297 105 80 302 134 138 139 121 113 156 137 115 112 109 109 110 108 106 104 103 106 102 99 94 93 94 93 91 97 101 102 103 103 97 94 91 87 75 67
125 152 260 278 304 16 119 197 218 139 141 138 127 143 142 124 113 116 115 113 110 106 101 102 105 104 102 99 97 98 96 90 83 85 95 98 97 95 95 94 90 82 76 63
130 150 251 301 8 98 190 178 126 117 121 116 113 115 117 118 119 119 116 113 111 106 98 92 98 103 101 100 102 98 94 88 80 75 85 91 93 90 90 94 91 85 79 66
166 195 235 309 110 154 131 105 104 113 118 119 118 120 119 118 118 115 114 112 110 110 102 91 90 102 108 108 103 97 91 85 77 72 70 76 88 94 91 89 90 86 81 75
91 76 61 48 58 62 77 91 98 113 120 119 120 122 118 116 113 110 111 114 115 112 109 103 97 99 106 108 104 99 93 88 83 82 76 69 67 73 87 91 93 90 87 81
84 121 53 29 45 70 73 84 91 101 112 119 120 123 123 120 116 112 107 109 112 115 115 112 106 99 99 103 107 103 99 96 91 88 90 81 71 60 69 64 95 107 101 98
189 205 144 164 352 87 92 92 107 112 107 110 118 121 119 117 116 116 113 112 111 111 111 110 108 103 98 103 111 111 107 102 101 103 98 96 95 77 56 68 71 78 88 96
167 154 132 129 58 86 108 107 107 113 118 116 112 118 118 116 115 117 116 114 116 117 115 115 114 111 106 105 109 112 116 116 112 110 111 110 107 106 94 63 62 65 71 78
102 95 86 94 98 93 107 107 105 104 106 112 114 115 114 113 114 115 118 119 117 114 114 117 119 118 118 115 114 113 115 117 117 114 114 112 108 106 107 106 89 59 51 65
50 76 121 114 93 88 99 108 107 106 107 108 113 115 116 117 119 118 117 115 113 111 112 116 117 120 122 120 118 119 118 118 115 112 110 108 105 100 96 94 94 89 70 54
88 76 100 107 106 99 111 119 118 119 117 114 114 116 117 117 116 113 114 118 119 119 121 120 122 130 127 124 122 120 120 124 122 119 116 111 109 107 104 102 98 92 85 75
128 137 127 118 124 130 130 126 127 128 125 122 123 121 117 115 113 112 112 111 113 115 118 120 125 124 122 123 123 122 121 125 124 119 118 120 119 116 113 110 107 98 87 86
146 152 152 147 147 146 135 126 127 130 131 130 125 120 120 124 125 124 120 113 105 97 97 110 115 112 111 114 117 117 116 117 120 121 120 118 118 117 116 116 114 107 92 81
122 130 132 134 142 139 135 133 131 130 130 130 127 126 125 125 125 123 120 116 116 115 114 112 112 106 107 111 114 113 115 113 110 109 111 114 111 112 116 117 113 109 104 92
120 126 127 127 125 124 125 127 127 125 129 128 124 122 120 121 122 120 115 109 114 126 122 112 107 104 105 108 109 110 113 114 114 113 109 108 112 114 113 113 113 113 111 108
134 126 123 125 122 120 124 126 128 129 128 127 128 129 126 123 121 119 118 111 102 103 104 105 102 103 100 107 107 109 111 113 114 116 116 116 117 115 113 114 117 118 119 117
134 128 128 127 124 120 120 123 127 127 126 123 123 124 123 121 117 107 99 114 120 112 102 97 100 104 107 106 103 106 107 108 107 110 114 119 121 122 122 122 120 120 121 121
124 125 126 129 128 127 121 122 127 128 129 130 130 130 127 126 127 125 118 112 113 109 104 103 107 106 104 101 103 105 105 104 106 109 112 115 119 121 124 126 124 123 122 119
117 119 120 120 121 120 121 120 116 115 117 120 123 125 125 120 108 100 114 122 119 115 108 111 111 110 108 105 106 106 108 111 114 116 118 116 116 117 121 126 124 119 122 122
118 119 120 121 124 126 126 122 115 113 113 111 111 111 112 118 123 124 119 122 125 118 112 115 113 109 107 108 110 111 111 113 116 117 116 117 118 120 122 126 129 129 127 127
118 119 117 119 123 127 130 127 124 124 121 118 115 115 114 113 117 118 118 123 124 121 117 116 115 111 111 114 116 117 115 114 113 113 118 120 118 117 117 116 117 121 127 131
109 110 110 109 111 118 120 121 124 126 128 128 125 124 124 123 121 122 123 125 125 121 117 115 115 116 115 114 113 112 112 112 114 117 117 117 119 119 121 121 120 121 119 117